Вернуться в каталог

QIANFAN-74

АктивенСвязьPO
NORAD 63160·PAYLOAD·🇨🇳 China

Запущен Mar 11, 2025 с Wenchang Space Launch Site

Loading…

Ближайшие Пролёты (ближайшие 24 часа)

TLE

СвежийSource: Space-Track

Эпоха: Sep 14, 2026, 22:01 UTC

1 63160U 25046B   26257.91774926 -.00000002  00000-0 -22020-4 0  9994
2 63160  88.9652 291.2392 0001826  96.3619 263.7740 13.51018705 84760

Отслеживайте QIANFAN-74 в реальном времени с AllMySat

Download on the App Store